STARLINK-32441, 61668

Orbit data source: Space-Track

STARLINK-32441, 61668 is a payload satellite owned by SpaceX/Seattle (US) in LEO that was launched on Sat, 26 Oct 2024 UTC via an FALCON 9 launch vehicle from the Air Force Eastern Test Range (AFETR). Payload-class satellites include a variety of spacecraft equipped with specific instruments for various scientific and technological missions. These include communications satellites like Starlink; space stations such as the ISS; scientific satellites like the Hubble; Earth observation satellites from companies like Planet Labs, Umbra, and HawkEye 360; GPS; miniature CubeSats for education and research; and military/defense satellites.

Loading next visibility...
Identifier
61668, 2024-193H
Orbit
LEO
Country
Flag of USUS
Related business
Manufacturer
SpaceX/Seattle
Mission
Operational Commercial Communications
Bus & Motor
STARLINK V2M, Unknown motor
Mass
730 kg wet, ~700 kg dry
Launch date (UTC)
2024-10-26 (10 months ago)
Launch vehicle
FALCON 9
Launch site
Air Force Eastern Test Range (AFETR)
Object type
Payload
Rocket body
Debris
Shape & HBR
Box + 2 Pan, 14.5 m
Radar Cross Section
36.964 m², Large (>1 m²)

Expand to show TLE details & history
Last TLE update: 9 hours ago

TLE from 9 hours ago
0 STARLINK-32441
1 61668U 24193H   25243.54899343 -.00000548  00000-0 -63937-5 0  9999
2 61668  53.1602 254.3073 0001236  90.2916 269.8226 15.30185869 47416
Epoch: 2025-08-31T13:10Z
TLE epoch observation values (Epoch: 2025-08-31T13:10:33.032Z)
Latitude
-0.00005°
Longitude
76.70229°
Altitude
476.16 km
Speed
7.629 km/s
True Right ascension
16h 57m 13s
True Declination
0° 00' 00"
Sunlit
Object was in daylight at epoch
Visualization orbit readout
Latitude
Unknown
Longitude
Unknown
Altitude
Unknown
Speed
Unknown
Apparent Right ascension
Unknown
Apparent Declination
Unknown
Sunlit
N/A
Visualization observer readout
Local Sidereal Time
14:08:33
Azimuth
Unknown
Elevation
Unknown
Doppler factor
Unknown
Orbital elements
Apogee altitude
476.361 km
Perigee altitude
474.667 km
Semi-major axis
6,853.651 km
Eccentricity
0.00012
Inclination
53.1602°
RAAN
254.3073°
Arg. of periapsis
90.2916°
True anomaly
269.80844°
Mean anomaly
269.8226°
Eccentric anomaly
269.81552°
Mean motion
3.82525 °/min
Orbital period
94.11 mins
BSTAR
-0.0000063937
Loading maneuver chart data...
Computing Atmospheric mass density...
Loading historical data...
Loading historical data...
Loading historical data...
Loading historical data...
Loading historical data...
Loading historical data...
Loading historical data...

Documentation

Showing up to 5 results
|